[[{"header":{"parameterUnit":"m.s-1","parameterCategory":2,"la1":30.2991,"la2":30.254,"lo1":-89.0895,"lo2":-89.0444,"dy":0.0017,"dx":0.0017,"nx":28,"ny":28,"refTime":"2024-05-07T03:00:00:Z","depth":"0","parameterNumber":2,"parameterNumberName":"U-component_of_CURRENTS"},"data":[0,0,0,0,0,0,0,0,0,0,0,0,0,0,0,0,0,0,0,0,0,0,0,0,0,0,0,0,0,0,0,0,0,0,0,0,0,0,0,0,0,0,0,0,0,0,0,0,0,0,0,0,0,0,0,0,0,0,0.2448,0.2448,0,0.2434,0.2433,0.2433,0.2407,0.2407,0.2407,0.2406,0.2381,0.238,0.238,0,0,0,0,0,0,0,0,0,0,0,0,0,0.2477,0.2476,0.2448,0.2448,0.2448,0.2434,0.2433,0.2433,0.2407,0.2407,0.2407,0.2406,0.2381,0.238,0.238,0,0,0,0,0,0,0,0,0,0,0,0,0,0.2462,0.2476,0.2448,0.2435,0.2434,0.2434,0.2433,0.2433,0.2407,0.2407,0.2407,0.2406,0.2381,0.238,0.238,0.2385,0,0,0.2378,0.2378,0,0,0,0,0,0,0,0,0.2462,0.246,0.2437,0.2436,0.2435,0.2424,0.2434,0.2417,0.2408,0.2415,0.2406,0.2406,0.2396,0.2394,0.2389,0.2384,0.2382,0.2378,0.2377,0.2377,0.2377,0,0,0,0,0,0,0,0.2464,0.2461,0.244,0.2437,0.2436,0.2438,0.2435,0.2431,0.2406,0.2415,0.2413,0.2415,0.2395,0.239,0.2388,0.2382,0.2378,0.2377,0.2377,0.2377,0.2412,0.2413,0,0,0,0,0,0,0.2469,0.2462,0.2441,0.244,0.245,0.2438,0.2434,0.2426,0.2407,0.2404,0.2415,0.2414,0.2391,0.2389,0.2387,0.241,0.2377,0.2377,0.2376,0.241,0.2412,0.2413,0,0,0,0,0,0,0.2469,0.2466,0.2442,0.2453,0.245,0.2438,0.2429,0.2426,0.2425,0.2408,0.2404,0.2417,0.2391,0.2388,0.2393,0.2408,0.2376,0.2376,0.2409,0.2411,0.2413,0.2443,0,0,0,0,0,0,0.247,0.2466,0.2465,0.2453,0.245,0.2448,0.2429,0.2426,0.2427,0.2425,0.2408,0.2405,0.239,0.2394,0.2392,0.2406,0.2375,0.2407,0.241,0.2412,0.2441,0.2446,0.2451,0,0,0,0,0,0.2471,0.2469,0.2465,0.2463,0.2447,0.2449,0.2448,0.2436,0.2428,0.2432,0.2423,0.2406,0.2408,0.2394,0.2392,0.2406,0.2406,0.2409,0.2412,0.2438,0.2445,0.245,0,0,0,0,0,0,0.2481,0.2467,0.2461,0.2455,0.2457,0.2446,0.2448,0.2443,0.2438,0.2435,0.2417,0.2414,0.2428,0.2417,0.2401,0.2427,0.2407,0.241,0.2428,0.2434,0.2439,0.2453,0.2375,0,0,0,0,0,0.2484,0.2477,0.2471,0.2468,0.2469,0.2461,0.2461,0.2455,0.245,0.2447,0.2435,0.2431,0.2438,0.2435,0.2437,0.2444,0.2451,0.2456,0.2461,0.2465,0.2477,0.2509,0.2517,0.2423,0.2423,0.2423,0,0,0.2486,0.248,0.2475,0.247,0.2467,0.2472,0.2459,0.2462,0.2466,0.2446,0.2447,0.2449,0.2447,0.2459,0.2464,0.2449,0.2495,0.2469,0.2472,0.2482,0.2513,0.2522,0.253,0.2425,0.2425,0.2424,0,0,0.2492,0.2484,0.2482,0.2486,0.2488,0.2484,0.2489,0.2483,0.2481,0.2487,0.248,0.2497,0.2489,0.2498,0.2501,0.2538,0.2526,0.2535,0.2563,0.2593,0.2601,0.2608,0.2623,0.2631,0.2531,0.2531,0.2531,0,0.2498,0.2485,0.2485,0.2491,0.249,0.2492,0.2494,0.25,0.2497,0.2506,0.2492,0.2518,0.2513,0.2545,0.2556,0.255,0.2558,0.2535,0.2599,0.2606,0.2613,0.2626,0.2635,0.2533,0.2533,0.2533,0.2533,0,0.25,0.2495,0.2497,0.2498,0.2507,0.2507,0.2517,0.2529,0.2527,0.2535,0.2567,0.2568,0.2586,0.2589,0.258,0.2629,0.2616,0.2605,0.2581,0.2624,0.2636,0.2644,0.2536,0.2535,0.2534,0.2534,0,0,0.2489,0.2493,0.2493,0.249,0.2504,0.2507,0.2532,0.2551,0.2572,0.2585,0.2611,0.2637,0.2648,0.2655,0.2653,0.2677,0.2725,0.266,0.2661,0.267,0.2784,0.2736,0.274,0.2722,0.2724,0.2726,0.2769,0,0.2483,0.2483,0.2491,0.2494,0.249,0.251,0.2532,0.2561,0.2585,0.2616,0.2646,0.2671,0.267,0.2678,0.2709,0.2726,0.275,0.2714,0.2745,0.2746,0.2694,0.2749,0.2627,0.2653,0.2777,0.2779,0.278,0,0.2471,0.2471,0.2466,0.2477,0.2479,0.2491,0.2526,0.255,0.2615,0.2639,0.2691,0.2709,0.2764,0.2743,0.2813,0.2788,0.2795,0.2801,0.2803,0.2756,0.2715,0.2632,0.2663,0.2603,0.2793,0.2792,0.2791,0,0.2441,0.2449,0.2437,0.2441,0.2463,0.2474,0.2496,0.2558,0.2587,0.2662,0.2691,0.2759,0.2788,0.2825,0.2851,0.2834,0.2913,0.2887,0.2852,0.2848,0.2751,0.2735,0.2723,0.2935,0.2935,0.2935,0.2935,0,0.2415,0.2405,0.2422,0.2415,0.242,0.2453,0.2479,0.2524,0.2593,0.263,0.27,0.2741,0.2811,0.2858,0.2873,0.2898,0.2937,0.2875,0.2866,0.2756,0.2741,0.2688,0.2652,0.2937,0.2936,0.2936,0.2936,0,0.2374,0.2382,0.2371,0.2391,0.2401,0.2408,0.246,0.2484,0.2563,0.2615,0.2637,0.2744,0.2814,0.2869,0.2932,0.292,0.2842,0.2936,0.2797,0.2771,0.2664,0.2634,0.2424,0.2369,0.2905,0.2904,0.2903,0,0.2347,0.2335,0.2347,0.2341,0.2345,0.2367,0.2381,0.2462,0.249,0.2606,0.2619,0.2721,0.2766,0.2858,0.2867,0.2893,0.2806,0.2788,0.2735,0.2658,0.2618,0.2429,0.2385,0.2616,0.2613,0.261,0.2608,0,0.2298,0.23,0.2293,0.2284,0.2288,0.2294,0.2321,0.2347,0.2434,0.2481,0.2552,0.2602,0.2701,0.2693,0.2742,0.2741,0.2615,0.2738,0.2696,0.2431,0.2183,0.2125,0.2584,0.2587,0.2589,0.2591,0.2592,0.2593,0.2258,0.224,0.2231,0.2211,0.2215,0.2205,0.2185,0.2226,0.2261,0.2308,0.2427,0.246,0.2534,0.259,0.2568,0.2483,0.2453,0.2416,0.2398,0.2223,0.2119,0.2528,0.2496,0.2498,0.2499,0.25,0.2501,0,0.2193,0.2175,0.2156,0.212,0.2083,0.2117,0.2119,0.2087,0.2082,0.2174,0.222,0.227,0.2257,0.2298,0.2254,0.2161,0.2015,0.2114,0.1844,0.1837,0.225,0.2193,0.2047,0.2047,0.2047,0.2047,0.2047,0.2047,0.216,0.2112,0.2091,0.1997,0.1968,0.1896,0.1879,0.1859,0.1894,0.1905,0.1926,0.1989,0.2056,0.2023,0.1932,0.1893,0.1726,0.1575,0.162,0.1957,0.1984,0.2009,0.1949,0.1754,0.1753,0.109,0.1086,0.1082]},{"header":{"parameterUnit":"m.s-1","parameterCategory":2,"la1":30.2991,"la2":30.254,"lo1":-89.0895,"lo2":-89.0444,"dy":0.0017,"dx":0.0017,"nx":28,"ny":28,"refTime":"2024-05-07T03:00:00:Z","depth":"0","parameterNumber":3,"parameterNumberName":"V-component_of_CURRENTS"},"data":[0,0,0,0,0,0,0,0,0,0,0,0,0,0,0,0,0,0,0,0,0,0,0,0,0,0,0,0,0,0,0,0,0,0,0,0,0,0,0,0,0,0,0,0,0,0,0,0,0,0,0,0,0,0,0,0,0,0,0.0438,0.0438,0,0.0413,0.0412,0.0412,0.0393,0.0393,0.0392,0.0392,0.0342,0.0341,0.034,0,0,0,0,0,0,0,0,0,0,0,0,0,0.0427,0.0428,0.0438,0.0438,0.0437,0.0413,0.0412,0.0412,0.0393,0.0393,0.0392,0.0392,0.0343,0.0341,0.034,0,0,0,0,0,0,0,0,0,0,0,0,0,0.042,0.0428,0.0438,0.0425,0.0424,0.0413,0.0412,0.0412,0.0393,0.0393,0.0392,0.0392,0.0343,0.0341,0.0339,0.0332,0,0,0.0334,0.0333,0,0,0,0,0,0,0,0,0.042,0.042,0.0427,0.0426,0.0424,0.0406,0.039,0.0384,0.0393,0.0404,0.0392,0.0392,0.0362,0.0358,0.0354,0.033,0.0328,0.0334,0.0333,0.0332,0.0331,0,0,0,0,0,0,0,0.0421,0.0421,0.0427,0.0427,0.0425,0.0406,0.0405,0.0389,0.0383,0.0403,0.0402,0.04,0.0361,0.0355,0.0352,0.0327,0.0334,0.0332,0.0331,0.033,0.0304,0.0305,0,0,0,0,0,0,0.0428,0.0422,0.0428,0.0427,0.0422,0.0407,0.0406,0.0412,0.0384,0.038,0.04,0.0399,0.0359,0.0354,0.035,0.0356,0.0332,0.033,0.0329,0.0304,0.0305,0.0305,0,0,0,0,0,0,0.0428,0.0429,0.0429,0.0423,0.0422,0.0408,0.0414,0.0411,0.0408,0.0382,0.0377,0.04,0.0358,0.0353,0.0345,0.0353,0.0329,0.0328,0.0304,0.0304,0.0305,0.0356,0,0,0,0,0,0,0.0428,0.0429,0.0435,0.0424,0.0423,0.0429,0.0414,0.0411,0.0408,0.0406,0.0381,0.0376,0.0358,0.0348,0.0343,0.035,0.0326,0.0303,0.0304,0.0305,0.0354,0.0358,0.0362,0,0,0,0,0,0.0427,0.0439,0.0436,0.0436,0.0432,0.0429,0.0427,0.0415,0.0408,0.0411,0.0396,0.0377,0.0349,0.0347,0.0341,0.0348,0.0303,0.0304,0.0304,0.0352,0.0358,0.0362,0,0,0,0,0,0,0.0434,0.0437,0.0434,0.0445,0.044,0.0427,0.0428,0.0419,0.041,0.0409,0.0383,0.0377,0.0371,0.0353,0.0352,0.0342,0.0322,0.0322,0.036,0.0365,0.0369,0.0384,0.0325,0,0,0,0,0,0.044,0.0452,0.0446,0.0454,0.0454,0.0442,0.0439,0.0432,0.0422,0.0418,0.04,0.0382,0.037,0.0364,0.0347,0.0344,0.0324,0.0344,0.0348,0.0352,0.036,0.034,0.0343,0.0308,0.0308,0.0308,0,0,0.0443,0.0448,0.0453,0.0457,0.0452,0.0462,0.044,0.0441,0.0448,0.0414,0.0416,0.0394,0.0371,0.0369,0.0364,0.0356,0.0351,0.0353,0.0356,0.0363,0.0341,0.0344,0.0347,0.0309,0.0308,0.0308,0,0,0.046,0.0463,0.0478,0.048,0.048,0.0476,0.0479,0.0469,0.0464,0.0462,0.044,0.0429,0.0406,0.0396,0.0387,0.0404,0.0371,0.0394,0.0431,0.0411,0.0414,0.0416,0.0395,0.0395,0.04,0.04,0.04,0,0.0464,0.0487,0.0481,0.0496,0.0504,0.0487,0.0505,0.0499,0.0486,0.0489,0.0469,0.0444,0.0421,0.0425,0.043,0.0414,0.0396,0.0415,0.0417,0.0419,0.042,0.0398,0.0397,0.0403,0.0402,0.0402,0.0402,0,0.0494,0.0512,0.0521,0.0541,0.0546,0.0559,0.0554,0.0553,0.0543,0.0538,0.0533,0.0499,0.0488,0.0475,0.0457,0.046,0.0441,0.0422,0.0407,0.0427,0.0402,0.04,0.0406,0.0405,0.0405,0.0404,0,0,0.0509,0.0538,0.0543,0.0563,0.0573,0.0584,0.0595,0.0608,0.0629,0.0599,0.0614,0.0583,0.0565,0.0553,0.0525,0.0506,0.0494,0.0473,0.0471,0.0456,0.0449,0.045,0.0447,0.0475,0.0475,0.0475,0.0427,0,0.0537,0.0581,0.0586,0.0628,0.0652,0.0645,0.0663,0.067,0.067,0.0679,0.064,0.0641,0.0596,0.0591,0.0566,0.0516,0.0492,0.0509,0.0428,0.0425,0.0427,0.0447,0.0511,0.0475,0.0425,0.0424,0.0424,0,0.0569,0.0598,0.0643,0.0684,0.0694,0.0715,0.0751,0.0767,0.0773,0.0772,0.0761,0.0728,0.0701,0.0652,0.0578,0.059,0.0526,0.0478,0.0475,0.0459,0.0424,0.0445,0.0473,0.0455,0.0421,0.0421,0.0421,0,0.0595,0.064,0.0682,0.0695,0.0733,0.0752,0.0775,0.0797,0.0829,0.0835,0.0849,0.0807,0.079,0.0705,0.0605,0.0591,0.0517,0.0483,0.0421,0.0419,0.0451,0.0453,0.0457,0.0425,0.0425,0.0425,0.0425,0,0.063,0.0663,0.0699,0.0723,0.078,0.0792,0.0856,0.0871,0.0905,0.096,0.0903,0.0925,0.0802,0.0741,0.0634,0.0533,0.0538,0.0435,0.0412,0.047,0.0474,0.044,0.0411,0.0423,0.0424,0.0424,0.0424,0,0.0653,0.0675,0.0727,0.0775,0.0795,0.0838,0.0911,0.0961,0.0983,0.1047,0.1048,0.1016,0.0949,0.0818,0.069,0.0587,0.0468,0.0434,0.0511,0.0498,0.042,0.0391,0.0368,0.0337,0.036,0.036,0.0359,0,0.067,0.0697,0.0765,0.0804,0.0829,0.0896,0.0949,0.0997,0.106,0.1113,0.1148,0.1099,0.1094,0.0905,0.0729,0.0553,0.0484,0.0469,0.045,0.0437,0.0387,0.0383,0.0357,0.0507,0.0508,0.0509,0.051,0,0.0698,0.0719,0.0765,0.0845,0.0907,0.0987,0.1068,0.1127,0.1195,0.1256,0.1324,0.1321,0.1164,0.1046,0.0801,0.066,0.0487,0.0481,0.0454,0.0499,0.0508,0.046,0.0511,0.0518,0.0517,0.0516,0.0516,0.0516,0.0718,0.0754,0.0813,0.0893,0.0968,0.1069,0.114,0.1237,0.1347,0.1452,0.1462,0.1514,0.1349,0.1043,0.0841,0.0579,0.054,0.0506,0.0468,0.0462,0.0452,0.0518,0.0506,0.0505,0.0504,0.0504,0.0503,0,0.0741,0.0787,0.0858,0.0954,0.1039,0.1077,0.1214,0.1297,0.1434,0.1566,0.1646,0.1682,0.1457,0.1189,0.0846,0.0641,0.0543,0.0519,0.0541,0.0506,0.0566,0.0594,0.0619,0.0619,0.0619,0.0619,0.0619,0.0619,0.0755,0.0817,0.0857,0.0991,0.1063,0.1181,0.1261,0.1394,0.1527,0.1723,0.1844,0.1921,0.1839,0.1225,0.0832,0.0683,0.0557,0.0523,0.0422,0.049,0.0487,0.0484,0.0506,0.0511,0.0511,0.0419,0.0418,0.0417]}],[{"header":{"parameterUnit":"m.s-1","parameterCategory":2,"la1":30.2991,"la2":30.254,"lo1":-89.0895,"lo2":-89.0444,"dy":0.0017,"dx":0.0017,"nx":28,"ny":28,"refTime":"2024-05-07T03:00:00:Z","depth":"2","parameterNumber":2,"parameterNumberName":"U-component_of_CURRENTS"},"data":[0,0,0,0,0,0,0,0,0,0,0,0,0,0,0,0,0,0,0,0,0,0,0,0,0,0,0,0,0,0,0,0,0,0,0,0,0,0,0,0,0,0,0,0,0,0,0,0,0,0,0,0,0,0,0,0,0,0,0.238,0.238,0,0.2366,0.2366,0.2365,0.2344,0.2343,0.2343,0.2343,0.2321,0.232,0.232,0,0,0,0,0,0,0,0,0,0,0,0,0,0.2406,0.2405,0.238,0.238,0.238,0.2366,0.2366,0.2365,0.2344,0.2343,0.2343,0.2343,0.2321,0.232,0.232,0,0,0,0,0,0,0,0,0,0,0,0,0,0.2391,0.2405,0.238,0.237,0.2369,0.2366,0.2366,0.2365,0.2344,0.2343,0.2343,0.2343,0.2321,0.232,0.232,0.2322,0,0,0.2318,0.2318,0,0,0,0,0,0,0,0,0.2392,0.239,0.2371,0.237,0.2369,0.2358,0.2367,0.2351,0.2344,0.2351,0.2343,0.2343,0.2334,0.2332,0.2327,0.2321,0.232,0.2318,0.2318,0.2317,0.2317,0,0,0,0,0,0,0,0.2393,0.2391,0.2373,0.2371,0.237,0.2371,0.2368,0.2363,0.2343,0.235,0.2349,0.2351,0.2333,0.2328,0.2327,0.2319,0.2318,0.2317,0.2317,0.2317,0.235,0.2351,0,0,0,0,0,0,0.2398,0.2391,0.2373,0.2372,0.2383,0.2371,0.2368,0.236,0.2343,0.234,0.2351,0.235,0.2329,0.2328,0.2326,0.2349,0.2317,0.2317,0.2316,0.2348,0.235,0.2351,0,0,0,0,0,0,0.2399,0.2397,0.2374,0.2384,0.2381,0.2371,0.2363,0.236,0.2361,0.2344,0.2341,0.2355,0.2329,0.2327,0.2332,0.2347,0.2316,0.2316,0.2347,0.2349,0.2351,0.2382,0,0,0,0,0,0,0.2399,0.2397,0.2396,0.2384,0.2381,0.238,0.2363,0.236,0.2363,0.2361,0.2346,0.2344,0.2329,0.2333,0.2331,0.2346,0.2315,0.2345,0.2348,0.235,0.2379,0.2385,0.2389,0,0,0,0,0,0.24,0.2399,0.2396,0.2394,0.238,0.2381,0.238,0.237,0.2364,0.2368,0.236,0.2344,0.2347,0.2333,0.2331,0.2346,0.2344,0.2347,0.235,0.2377,0.2384,0.2389,0,0,0,0,0,0,0.241,0.2397,0.2393,0.2388,0.239,0.2378,0.2382,0.2377,0.2374,0.2372,0.2355,0.2352,0.2366,0.2355,0.234,0.2365,0.2345,0.2348,0.2367,0.2373,0.2378,0.2392,0.2315,0,0,0,0,0,0.2413,0.2408,0.2402,0.24,0.2402,0.2394,0.2395,0.239,0.2385,0.2383,0.2373,0.2369,0.2376,0.2373,0.2375,0.2381,0.2388,0.2393,0.2398,0.2402,0.2414,0.2444,0.2452,0.236,0.236,0.236,0,0,0.2416,0.241,0.2406,0.2403,0.24,0.2405,0.2393,0.2397,0.2401,0.2382,0.2384,0.2387,0.2384,0.2396,0.2401,0.2386,0.2431,0.2406,0.2409,0.2419,0.2448,0.2456,0.2464,0.2362,0.2362,0.2362,0,0,0.2421,0.2415,0.2414,0.2418,0.2422,0.2418,0.2423,0.2418,0.2417,0.2423,0.2418,0.2435,0.2427,0.2435,0.2437,0.2473,0.2461,0.2471,0.2499,0.2527,0.2535,0.2542,0.2556,0.2563,0.2467,0.2467,0.2468,0,0.2428,0.2416,0.2417,0.2423,0.2423,0.2426,0.2428,0.2434,0.2432,0.2442,0.243,0.2455,0.245,0.248,0.2492,0.2485,0.2493,0.2472,0.2533,0.254,0.2547,0.2559,0.2568,0.2469,0.2469,0.2469,0.2469,0,0.2429,0.2426,0.2429,0.2431,0.244,0.244,0.245,0.2463,0.2462,0.2471,0.2502,0.2503,0.2521,0.2524,0.2515,0.2563,0.2551,0.254,0.2516,0.2558,0.2568,0.2576,0.2472,0.2471,0.2471,0.247,0,0,0.2419,0.2424,0.2425,0.2423,0.2437,0.244,0.2465,0.2483,0.2504,0.2518,0.2544,0.2569,0.2582,0.2588,0.2586,0.2608,0.2657,0.2593,0.2594,0.2603,0.2712,0.2662,0.2666,0.2653,0.2655,0.2657,0.2698,0,0.2413,0.2414,0.2423,0.2426,0.2423,0.2444,0.2464,0.2493,0.2517,0.2548,0.2577,0.2602,0.2602,0.2612,0.2641,0.2657,0.2681,0.2646,0.2674,0.2675,0.2622,0.2675,0.2419,0.2431,0.2706,0.2707,0.2708,0,0.2403,0.2403,0.24,0.241,0.2413,0.2425,0.246,0.2483,0.2546,0.257,0.2622,0.264,0.2693,0.2674,0.274,0.2717,0.2724,0.273,0.2731,0.2682,0.2641,0.2436,0.2435,0.2721,0.272,0.2719,0.2719,0,0.2374,0.2383,0.2373,0.2376,0.2398,0.2411,0.2432,0.2492,0.252,0.2594,0.2623,0.2689,0.2718,0.2753,0.2778,0.2762,0.2837,0.2811,0.2774,0.277,0.2557,0.2531,0.2857,0.2857,0.2857,0.2857,0.2857,0,0.2349,0.2341,0.2359,0.2353,0.2358,0.2391,0.2418,0.2462,0.2529,0.2564,0.2634,0.2672,0.2741,0.2785,0.28,0.282,0.286,0.2796,0.2786,0.256,0.2536,0.279,0.2782,0.2859,0.2858,0.2858,0.2858,0,0.231,0.2319,0.231,0.2331,0.2341,0.235,0.2403,0.2426,0.2503,0.2553,0.2576,0.2678,0.2744,0.2796,0.2855,0.284,0.2862,0.2853,0.2582,0.254,0.2769,0.2762,0.282,0.2819,0.2818,0.2817,0.2817,0,0.2285,0.2275,0.2288,0.2284,0.229,0.2313,0.2327,0.2406,0.2433,0.2545,0.2556,0.2654,0.2692,0.2777,0.2763,0.2781,0.2855,0.2561,0.2491,0.2785,0.277,0.2764,0.2759,0.2213,0.2207,0.2203,0.2199,0,0.2239,0.2243,0.2237,0.2231,0.2236,0.2242,0.227,0.2294,0.2378,0.2422,0.2486,0.253,0.2603,0.2515,0.2551,0.2528,0.254,0.247,0.2844,0.2274,0.2219,0.2202,0.2215,0.2158,0.2162,0.2165,0.2167,0.2169,0.2202,0.2186,0.2179,0.2162,0.2167,0.2156,0.2136,0.2171,0.2201,0.2226,0.234,0.2318,0.234,0.2273,0.2204,0.2152,0.2345,0.2228,0.2238,0.2255,0.2189,0.2137,0.2047,0.2051,0.2053,0.2056,0.2058,0,0.2138,0.2124,0.2107,0.2074,0.2036,0.2073,0.2072,0.2027,0.2011,0.2057,0.2078,0.1905,0.1835,0.1866,0.1711,0.172,0.1667,0.1654,0.1553,0.1596,0.1633,0.1533,0.1218,0.1215,0.1213,0.1211,0,0,0.2107,0.206,0.204,0.1948,0.1924,0.1848,0.183,0.1784,0.1777,0.1719,0.1673,0.1776,0.1819,0.1506,0.1458,0.131,0.1443,0.1252,0.1926,0.185,0.1885,0.1966,0.1861,0,0,0,0,0]},{"header":{"parameterUnit":"m.s-1","parameterCategory":2,"la1":30.2991,"la2":30.254,"lo1":-89.0895,"lo2":-89.0444,"dy":0.0017,"dx":0.0017,"nx":28,"ny":28,"refTime":"2024-05-07T03:00:00:Z","depth":"2","parameterNumber":3,"parameterNumberName":"V-component_of_CURRENTS"},"data":[0,0,0,0,0,0,0,0,0,0,0,0,0,0,0,0,0,0,0,0,0,0,0,0,0,0,0,0,0,0,0,0,0,0,0,0,0,0,0,0,0,0,0,0,0,0,0,0,0,0,0,0,0,0,0,0,0,0,0.0354,0.0353,0,0.0329,0.0329,0.0328,0.0311,0.0311,0.0311,0.0311,0.0263,0.0262,0.0261,0,0,0,0,0,0,0,0,0,0,0,0,0,0.0343,0.0343,0.0354,0.0353,0.0353,0.0329,0.0329,0.0328,0.0312,0.0311,0.0311,0.0311,0.0263,0.0262,0.0261,0,0,0,0,0,0,0,0,0,0,0,0,0,0.0335,0.0343,0.0354,0.0342,0.0341,0.0329,0.0329,0.0328,0.0312,0.0311,0.0311,0.0311,0.0264,0.0262,0.026,0.0251,0,0,0.0255,0.0254,0,0,0,0,0,0,0,0,0.0336,0.0336,0.0344,0.0343,0.0342,0.0324,0.0307,0.0301,0.0312,0.0322,0.0311,0.0311,0.0282,0.0278,0.0273,0.0249,0.0247,0.0255,0.0253,0.0253,0.0252,0,0,0,0,0,0,0,0.0336,0.0336,0.0343,0.0344,0.0343,0.0324,0.0323,0.0306,0.0302,0.0321,0.032,0.0318,0.0281,0.0275,0.0272,0.0246,0.0255,0.0253,0.0252,0.0251,0.0223,0.0224,0,0,0,0,0,0,0.0343,0.0337,0.0344,0.0343,0.0339,0.0324,0.0323,0.0329,0.0302,0.0299,0.0318,0.0318,0.0278,0.0274,0.027,0.0275,0.0253,0.0251,0.025,0.0223,0.0224,0.0224,0,0,0,0,0,0,0.0343,0.0344,0.0345,0.0339,0.0338,0.0325,0.0331,0.0329,0.0327,0.0301,0.0296,0.032,0.0278,0.0273,0.0265,0.0273,0.025,0.0248,0.0223,0.0223,0.0224,0.0274,0,0,0,0,0,0,0.0343,0.0345,0.0351,0.034,0.0339,0.0345,0.0331,0.0328,0.0326,0.0324,0.03,0.0295,0.0278,0.0268,0.0263,0.027,0.0247,0.0222,0.0223,0.0224,0.0272,0.0276,0.028,0,0,0,0,0,0.0343,0.0354,0.0351,0.0352,0.0348,0.0345,0.0343,0.0332,0.0326,0.0329,0.0315,0.0296,0.0269,0.0267,0.0261,0.0267,0.0222,0.0223,0.0224,0.027,0.0275,0.028,0,0,0,0,0,0,0.0349,0.0353,0.035,0.0361,0.0356,0.0343,0.0344,0.0336,0.0327,0.0327,0.0302,0.0296,0.029,0.0273,0.0271,0.0261,0.0242,0.0241,0.0279,0.0284,0.0288,0.0303,0.0245,0,0,0,0,0,0.0355,0.0366,0.0361,0.0369,0.037,0.0358,0.0355,0.0349,0.034,0.0336,0.0318,0.0301,0.0288,0.0282,0.0265,0.0262,0.0242,0.0261,0.0265,0.0269,0.0277,0.0256,0.0259,0.0227,0.0227,0.0227,0,0,0.0358,0.0362,0.0367,0.0372,0.0367,0.0376,0.0356,0.0358,0.0364,0.0331,0.0333,0.0312,0.029,0.0286,0.0282,0.0274,0.0267,0.027,0.0273,0.028,0.0257,0.026,0.0263,0.0227,0.0227,0.0227,0,0,0.0374,0.0377,0.0392,0.0394,0.0394,0.039,0.0394,0.0384,0.038,0.0378,0.0357,0.0346,0.0323,0.0313,0.0303,0.0319,0.0287,0.031,0.0345,0.0325,0.0327,0.0329,0.0307,0.0307,0.0315,0.0315,0.0315,0,0.0377,0.04,0.0394,0.0409,0.0417,0.0401,0.0419,0.0412,0.0401,0.0404,0.0385,0.036,0.0337,0.034,0.0345,0.0329,0.0311,0.033,0.033,0.0332,0.0333,0.031,0.0309,0.0318,0.0317,0.0317,0.0317,0,0.0406,0.0423,0.0432,0.0452,0.0457,0.0469,0.0464,0.0464,0.0455,0.0451,0.0445,0.0412,0.0401,0.0388,0.0371,0.0372,0.0354,0.0336,0.032,0.034,0.0314,0.0312,0.0321,0.032,0.032,0.0319,0,0,0.042,0.0448,0.0453,0.0473,0.0483,0.0493,0.0504,0.0515,0.0536,0.0507,0.0521,0.0491,0.0475,0.0463,0.0435,0.0416,0.0404,0.0385,0.0383,0.0367,0.0357,0.0358,0.0355,0.0385,0.0385,0.0385,0.0335,0,0.0447,0.049,0.0494,0.0535,0.0558,0.0551,0.0568,0.0575,0.0575,0.0583,0.0545,0.0546,0.0504,0.05,0.0474,0.0425,0.0401,0.0419,0.0337,0.0335,0.0336,0.0354,0.0359,0.0317,0.0333,0.0333,0.0332,0,0.0479,0.0506,0.055,0.0589,0.0599,0.0618,0.0653,0.0668,0.0672,0.0672,0.0661,0.063,0.0603,0.0556,0.0483,0.0496,0.0433,0.0386,0.0383,0.0367,0.0332,0.03,0.0312,0.0329,0.0329,0.0329,0.0329,0,0.0504,0.0547,0.0588,0.06,0.0637,0.0655,0.0677,0.0698,0.0728,0.0733,0.0748,0.0705,0.0689,0.0605,0.0508,0.0495,0.042,0.0387,0.0326,0.0324,0.0305,0.0303,0.0329,0.0329,0.0329,0.0329,0.0329,0,0.0538,0.0571,0.0605,0.0629,0.0684,0.0695,0.0757,0.0771,0.0803,0.0855,0.08,0.0819,0.0701,0.0639,0.0535,0.0435,0.0439,0.0339,0.0316,0.0323,0.0323,0.0313,0.0312,0.0327,0.0328,0.0328,0.0328,0,0.0563,0.0583,0.0634,0.0679,0.0699,0.0742,0.0812,0.086,0.0881,0.0941,0.0943,0.0908,0.0841,0.0713,0.0586,0.0486,0.0377,0.0335,0.0353,0.0334,0.0285,0.0287,0.0262,0.0262,0.0262,0.0261,0.0261,0,0.058,0.0607,0.0672,0.071,0.0735,0.08,0.0851,0.0896,0.0956,0.1004,0.1036,0.0987,0.0976,0.0788,0.0609,0.0435,0.0395,0.0307,0.0283,0.03,0.028,0.0282,0.0284,0.027,0.027,0.0269,0.0269,0,0.0609,0.063,0.0674,0.0752,0.0812,0.0889,0.0967,0.1023,0.1086,0.1141,0.1202,0.1193,0.1029,0.0867,0.0624,0.0493,0.0337,0.0301,0.0316,0.0294,0.0306,0.0286,0.0288,0.0269,0.0269,0.0269,0.0269,0.0269,0.063,0.0665,0.0722,0.08,0.0874,0.0968,0.1037,0.1123,0.1225,0.1299,0.131,0.1293,0.1103,0.0799,0.0582,0.0342,0.0367,0.0256,0.0256,0.0257,0.0275,0.0287,0.0249,0.0249,0.0249,0.0249,0.0249,0,0.0652,0.0698,0.0767,0.0859,0.0939,0.0979,0.1109,0.1169,0.1289,0.1358,0.1411,0.1211,0.104,0.0803,0.0473,0.0282,0.0246,0.0186,0.019,0.0193,0.0196,0.021,0.0166,0.0165,0.0164,0.0164,0,0,0.0665,0.0724,0.0761,0.089,0.0962,0.1069,0.1145,0.1234,0.1308,0.1362,0.1359,0.1353,0.1105,0.0832,0.0573,0.0376,0.0317,0.0316,0.0408,0.0448,0.0452,0.0266,0.0296,0,0,0,0,0]}],[{"header":{"parameterUnit":"m.s-1","parameterCategory":2,"la1":30.2991,"la2":30.254,"lo1":-89.0895,"lo2":-89.0444,"dy":0.0017,"dx":0.0017,"nx":28,"ny":28,"refTime":"2024-05-07T03:00:00:Z","depth":"4","parameterNumber":2,"parameterNumberName":"U-component_of_CURRENTS"},"data":[0,0,0,0,0,0,0,0,0,0,0,0,0,0,0,0,0,0,0,0,0,0,0,0,0,0,0,0,0,0,0,0,0,0,0,0,0,0,0,0,0,0,0,0,0,0,0,0,0,0,0,0,0,0,0,0,0,0,0.1581,0.1581,0,0.1611,0.1611,0.1611,0.1645,0.1646,0.1647,0.1647,0.1691,0.1692,0.1692,0,0,0,0,0,0,0,0,0,0,0,0,0,0.1539,0.154,0.1581,0.1581,0.1582,0.1611,0.1611,0.1611,0.1645,0.1646,0.1647,0.1648,0.1691,0.1692,0.1692,0,0,0,0,0,0,0,0,0,0,0,0,0,0.156,0.154,0.158,0.1604,0.1607,0.1611,0.1611,0.1611,0.1645,0.1646,0.1647,0.1648,0.1691,0.1692,0.1692,0.1675,0,0,0.1695,0.1695,0,0,0,0,0,0,0,0,0.1558,0.1561,0.16,0.1602,0.1605,0.1627,0.1612,0.1634,0.1645,0.1628,0.1647,0.1649,0.1672,0.1674,0.1674,0.1677,0.1679,0.1695,0.1695,0.1695,0.1696,0,0,0,0,0,0,0,0.1557,0.156,0.159,0.1601,0.1604,0.1609,0.1613,0.1616,0.1642,0.1629,0.1633,0.1639,0.1673,0.1673,0.1675,0.168,0.1695,0.1695,0.1696,0.1696,0.1773,0.1774,0,0,0,0,0,0,0.1558,0.1558,0.1589,0.1591,0.1587,0.1609,0.1613,0.1617,0.1642,0.1647,0.1638,0.1641,0.1671,0.1674,0.1677,0.1745,0.1695,0.1696,0.1696,0.1771,0.1773,0.1775,0,0,0,0,0,0,0.1557,0.156,0.1588,0.1578,0.1582,0.1609,0.1613,0.1617,0.1652,0.1649,0.1654,0.1672,0.1672,0.1676,0.1713,0.1744,0.1696,0.1697,0.1769,0.1772,0.1774,0.1825,0,0,0,0,0,0,0.1555,0.1559,0.1578,0.1577,0.1583,0.1613,0.1612,0.1617,0.1653,0.1657,0.1679,0.1682,0.1673,0.1712,0.1714,0.1744,0.1698,0.1767,0.177,0.1773,0.1821,0.1829,0.1835,0,0,0,0,0,0.1553,0.1567,0.1579,0.1584,0.1602,0.1614,0.1617,0.1638,0.1654,0.1672,0.1692,0.1683,0.1733,0.1714,0.1716,0.1746,0.1766,0.177,0.1773,0.1818,0.1827,0.1835,0,0,0,0,0,0,0.1559,0.1572,0.1585,0.1604,0.1621,0.1621,0.1645,0.1657,0.1685,0.1701,0.1699,0.1703,0.1749,0.1742,0.1722,0.1779,0.175,0.1754,0.1783,0.1792,0.1799,0.1805,0.1698,0,0,0,0,0,0.1569,0.1587,0.1597,0.1618,0.1629,0.1644,0.1659,0.1673,0.169,0.1705,0.1721,0.174,0.1758,0.1772,0.1785,0.1812,0.181,0.1835,0.1842,0.1848,0.1856,0.1882,0.1891,0.1787,0.1787,0.1787,0,0,0.1577,0.1589,0.1601,0.1622,0.1638,0.1655,0.1657,0.1688,0.171,0.1704,0.1752,0.1768,0.1773,0.1807,0.1827,0.1809,0.1877,0.1853,0.1857,0.1862,0.1886,0.1896,0.1905,0.1789,0.1789,0.1788,0,0,0.1591,0.1615,0.1633,0.165,0.1682,0.1687,0.1705,0.1727,0.1751,0.1788,0.1796,0.1835,0.1857,0.1869,0.1875,0.1929,0.1916,0.1938,0.1975,0.2,0.2009,0.2016,0.2025,0.2033,0.1938,0.1938,0.1938,0,0.1606,0.1621,0.1641,0.1662,0.1679,0.1706,0.1726,0.1749,0.1784,0.1808,0.1816,0.1876,0.1885,0.1924,0.1947,0.1945,0.1952,0.194,0.2009,0.2016,0.2023,0.203,0.2038,0.1941,0.1941,0.1941,0.194,0,0.1617,0.1646,0.166,0.1692,0.1716,0.1739,0.1768,0.1807,0.184,0.1862,0.1925,0.1942,0.1978,0.199,0.1985,0.2042,0.203,0.2015,0.1984,0.2036,0.2041,0.2048,0.1945,0.1944,0.1943,0.1943,0,0,0.1603,0.1656,0.1665,0.1685,0.1734,0.1748,0.18,0.1841,0.1882,0.1931,0.1978,0.2025,0.2051,0.2061,0.2068,0.2092,0.2148,0.2082,0.2082,0.2085,0.2199,0.2048,0.2041,0.2148,0.215,0.2151,0.2182,0,0.1606,0.1643,0.1671,0.1713,0.1731,0.1777,0.1818,0.187,0.1918,0.1973,0.2015,0.2065,0.2072,0.21,0.2131,0.2146,0.2171,0.214,0.2153,0.2153,0.2008,0.2046,0.2157,0.2187,0.2189,0.219,0.2191,0,0.1598,0.1626,0.1665,0.172,0.1734,0.1771,0.1843,0.1885,0.197,0.2012,0.2081,0.2111,0.2175,0.2163,0.2228,0.2211,0.2218,0.222,0.2221,0.2067,0.2016,0.2126,0.2204,0.2203,0.2202,0.2201,0.22,0,0.1557,0.1616,0.1647,0.1667,0.1736,0.1776,0.1823,0.1908,0.1952,0.2051,0.2091,0.2166,0.221,0.2242,0.2265,0.2256,0.2314,0.2294,0.2163,0.2152,0.2257,0.2248,0.2334,0.2334,0.2334,0.2334,0.2334,0,0.1525,0.1555,0.1639,0.1655,0.1704,0.1767,0.1833,0.1895,0.1985,0.2028,0.2117,0.2151,0.2235,0.2272,0.2284,0.2242,0.2333,0.2173,0.2151,0.2277,0.2271,0.2261,0.2253,0.2335,0.2335,0.2335,0.2335,0,0.1469,0.1524,0.1566,0.1654,0.1687,0.1729,0.1835,0.1873,0.1975,0.2033,0.2066,0.2164,0.2207,0.226,0.2307,0.2244,0.223,0.2193,0.2326,0.2311,0.2048,0.2042,0.2042,0.2037,0.2033,0.2029,0.2026,0,0.1437,0.1456,0.1559,0.1588,0.1634,0.171,0.1752,0.1863,0.1895,0.2014,0.2019,0.2106,0.2152,0.2097,0.2175,0.2174,0.2151,0.2121,0.2081,0.2041,0.202,0.202,0.202,0.202,0.2018,0.2017,0.2016,0,0.1376,0.1432,0.1469,0.1532,0.1586,0.1631,0.17,0.1713,0.1818,0.1921,0.1915,0.1927,0.1967,0.1999,0.2011,0.2011,0.2125,0.2076,0.2084,0.2047,0.2013,0.1997,0.2001,0.2001,0.2003,0.2005,0.2006,0,0.134,0.1353,0.1414,0.1451,0.1516,0.1524,0.1576,0.1595,0.1641,0.1756,0.1753,0.1844,0.194,0.1915,0.1931,0.1914,0.1884,0.1808,0.183,0.1847,0.1769,0.1696,0.1569,0,0,0,0,0,0.1291,0.129,0.1323,0.1352,0.1407,0.1443,0.1519,0.1568,0.1665,0.1607,0.167,0.1693,0.1702,0.1763,0.1707,0.1863,0.1907,0.179,0.1835,0.1919,0.1936,0.1862,0,0,0,0,0,0,0.1259,0.129,0.1289,0.1257,0.1257,0.1301,0.1348,0.1415,0.1387,0.1491,0.1512,0.158,0.1631,0.1715,0.1672,0.1688,0.1677,0.1852,0.1846,0.1909,0.1925,0.1939,0.1868,0,0,0,0,0]},{"header":{"parameterUnit":"m.s-1","parameterCategory":2,"la1":30.2991,"la2":30.254,"lo1":-89.0895,"lo2":-89.0444,"dy":0.0017,"dx":0.0017,"nx":28,"ny":28,"refTime":"2024-05-07T03:00:00:Z","depth":"4","parameterNumber":3,"parameterNumberName":"V-component_of_CURRENTS"},"data":[0,0,0,0,0,0,0,0,0,0,0,0,0,0,0,0,0,0,0,0,0,0,0,0,0,0,0,0,0,0,0,0,0,0,0,0,0,0,0,0,0,0,0,0,0,0,0,0,0,0,0,0,0,0,0,0,0,0,0.0199,0.0199,0,0.0189,0.0188,0.0188,0.0185,0.0185,0.0185,0.0185,0.0159,0.0159,0.0158,0,0,0,0,0,0,0,0,0,0,0,0,0,0.018,0.0181,0.0199,0.0199,0.0199,0.0189,0.0188,0.0188,0.0185,0.0185,0.0185,0.0185,0.016,0.0159,0.0158,0,0,0,0,0,0,0,0,0,0,0,0,0,0.0181,0.0181,0.0199,0.0196,0.0196,0.0189,0.0188,0.0188,0.0185,0.0185,0.0185,0.0185,0.016,0.0159,0.0158,0.0148,0,0,0.0154,0.0154,0,0,0,0,0,0,0,0,0.0181,0.0181,0.0196,0.0196,0.0196,0.0188,0.0173,0.0174,0.0184,0.0188,0.0185,0.0185,0.0168,0.0166,0.0163,0.0147,0.0146,0.0154,0.0153,0.0153,0.0153,0,0,0,0,0,0,0,0.0181,0.0181,0.0194,0.0196,0.0196,0.0183,0.0184,0.0173,0.0177,0.0188,0.0188,0.0187,0.0168,0.0165,0.0163,0.0146,0.0154,0.0153,0.0152,0.0152,0.0138,0.0138,0,0,0,0,0,0,0.0185,0.0182,0.0195,0.0194,0.0189,0.0184,0.0184,0.019,0.0177,0.0176,0.0187,0.0187,0.0166,0.0164,0.0162,0.0172,0.0153,0.0152,0.0151,0.0137,0.0138,0.0138,0,0,0,0,0,0,0.0184,0.0186,0.0195,0.0187,0.0188,0.0184,0.0191,0.019,0.0194,0.0177,0.0175,0.0192,0.0166,0.0163,0.0163,0.017,0.0151,0.015,0.0137,0.0137,0.0138,0.0178,0,0,0,0,0,0,0.0184,0.0186,0.0193,0.0188,0.0188,0.0198,0.0191,0.019,0.0193,0.0193,0.0181,0.0178,0.0166,0.0164,0.0161,0.0168,0.0149,0.0137,0.0137,0.0138,0.0177,0.018,0.0183,0,0,0,0,0,0.0184,0.0193,0.0194,0.0195,0.0198,0.0198,0.0197,0.0194,0.0193,0.0197,0.0192,0.0179,0.0166,0.0164,0.016,0.0167,0.0136,0.0137,0.0138,0.0175,0.0179,0.0183,0,0,0,0,0,0,0.0185,0.0193,0.0194,0.0205,0.0204,0.0198,0.0201,0.0199,0.0197,0.02,0.0184,0.0181,0.0181,0.0169,0.0167,0.0164,0.0148,0.0148,0.0178,0.0182,0.0185,0.0197,0.0149,0,0,0,0,0,0.019,0.0202,0.0202,0.0211,0.0213,0.0208,0.0209,0.0208,0.0205,0.0205,0.0196,0.0187,0.0179,0.0177,0.0167,0.0167,0.0149,0.0168,0.0171,0.0174,0.0181,0.0161,0.0163,0.014,0.014,0.014,0,0,0.0192,0.0198,0.0204,0.0212,0.0212,0.0222,0.0209,0.0215,0.0223,0.0201,0.021,0.0197,0.0181,0.0182,0.0181,0.0175,0.017,0.0175,0.0178,0.0183,0.0162,0.0164,0.0166,0.0141,0.014,0.014,0,0,0.0203,0.021,0.0223,0.0228,0.0234,0.0234,0.0238,0.0237,0.0238,0.0242,0.0229,0.0224,0.0212,0.0205,0.0199,0.0213,0.0187,0.0207,0.0236,0.0216,0.0218,0.0219,0.0197,0.0196,0.0211,0.0211,0.0211,0,0.0205,0.0225,0.0226,0.024,0.0249,0.0243,0.0259,0.0258,0.0257,0.0262,0.0251,0.0238,0.0223,0.0227,0.0233,0.0221,0.0204,0.0224,0.0221,0.0222,0.0223,0.0199,0.0197,0.0213,0.0213,0.0213,0.0213,0,0.0226,0.0244,0.0252,0.0273,0.028,0.0293,0.0295,0.03,0.0299,0.0301,0.0302,0.0279,0.0276,0.0266,0.0255,0.0256,0.024,0.0226,0.0213,0.0227,0.0201,0.0199,0.0216,0.0215,0.0215,0.0214,0,0,0.0232,0.0262,0.0267,0.0286,0.0302,0.0313,0.0327,0.0342,0.0362,0.0346,0.0361,0.0343,0.0334,0.0326,0.0306,0.0289,0.0275,0.0265,0.0263,0.0246,0.023,0.0218,0.0214,0.0261,0.0261,0.026,0.0209,0,0.0251,0.0288,0.0298,0.0335,0.0356,0.0359,0.0377,0.0389,0.0395,0.0406,0.038,0.0387,0.0356,0.0357,0.0334,0.0294,0.0272,0.0291,0.0216,0.0213,0.0204,0.0212,0.026,0.0207,0.0206,0.0206,0.0205,0,0.0272,0.0297,0.0337,0.0378,0.0388,0.0409,0.0445,0.0462,0.0473,0.0477,0.0474,0.0453,0.0434,0.0399,0.0335,0.035,0.0296,0.0255,0.0252,0.0227,0.0198,0.0188,0.0201,0.0201,0.0201,0.0202,0.0202,0,0.0284,0.0327,0.0364,0.0377,0.0417,0.0438,0.0463,0.0487,0.0516,0.0528,0.0543,0.0511,0.0501,0.0431,0.0351,0.0344,0.0271,0.0248,0.0182,0.018,0.0188,0.0187,0.0195,0.0195,0.0195,0.0195,0.0195,0,0.0304,0.0335,0.0376,0.0397,0.045,0.0468,0.0527,0.0543,0.0577,0.0619,0.0587,0.0598,0.0509,0.0455,0.0369,0.0275,0.0284,0.0191,0.0169,0.0205,0.0207,0.0186,0.0186,0.0193,0.0193,0.0194,0.0194,0,0.0313,0.0338,0.0385,0.0436,0.0458,0.0498,0.0573,0.0613,0.0641,0.0688,0.0693,0.0667,0.0603,0.0503,0.0392,0.0309,0.0213,0.0173,0.0225,0.0206,0.0127,0.0129,0.0094,0.0093,0.0093,0.0092,0.0092,0,0.0321,0.0345,0.0413,0.045,0.0479,0.0544,0.0591,0.0641,0.0688,0.0729,0.0748,0.0707,0.0672,0.0512,0.0401,0.0237,0.0205,0.0145,0.0129,0.0136,0.0118,0.0121,0.0124,0.009,0.009,0.009,0.009,0,0.0333,0.0358,0.0399,0.0471,0.053,0.06,0.0671,0.0706,0.0764,0.0788,0.0795,0.0718,0.0645,0.0517,0.0394,0.0272,0.018,0.0137,0.0137,0.0121,0.0131,0.0115,0.0118,0.0088,0.0088,0.0088,0.0088,0,0.0343,0.037,0.0422,0.049,0.0564,0.0634,0.0673,0.0728,0.0773,0.0814,0.0815,0.074,0.0706,0.0536,0.0422,0.0305,0.0262,0.0201,0.0196,0.0198,0.0239,0.0267,0.0252,0,0,0,0,0,0.035,0.0379,0.0438,0.0509,0.0584,0.0628,0.0716,0.0751,0.0802,0.0811,0.0817,0.0749,0.0596,0.0537,0.0417,0.0389,0.0229,0.0241,0.0153,0.0075,0.0078,0.0107,0,0,0,0,0,0,0.0353,0.0401,0.043,0.0514,0.0563,0.0645,0.0702,0.0738,0.0748,0.0782,0.071,0.0692,0.0549,0.0661,0.0405,0.0373,0.0293,0.0181,0.0177,0.0073,0.0076,0.0078,0.0109,0,0,0,0,0]}]]